Time,TemperatureF,DewpointF,PressureIn,WindDirection,WindDirectionDegrees,WindSpeedMPH,WindSpeedGustMPH,Humidity,HourlyPrecipIn,Conditions,Clouds,dailyrainin,SoftwareType,DateUTC
2013-09-09 00:03:00,63.3,62.1,29.72,NE,45,2.9,4.2,96,0.40,RA,,0.00,WeatherDisplay:10.37,2013-09-09 06:03:00,
2013-09-09 00:08:00,63.3,62.1,29.72,ENE,68,2.5,3.5,96,0.29,RA,,0.00,WeatherDisplay:10.37,2013-09-09 06:08:00,
2013-09-09 00:13:00,63.3,62.1,29.72,ENE,68,3.3,4.6,96,0.27,-RA,,0.00,WeatherDisplay:10.37,2013-09-09 06:13:00,
2013-09-09 00:18:00,63.3,62.1,29.71,NNE,22,0.7,1.1,96,0.24,-RA,,0.00,WeatherDisplay:10.37,2013-09-09 06:18:00,
2013-09-09 00:23:00,63.3,62.1,29.71,ENE,68,0.6,1.1,96,0.20,-RA,,0.00,WeatherDisplay:10.37,2013-09-09 06:23:00,
2013-09-09 00:28:00,63.3,62.1,29.70,NNE,22,2.2,2.3,96,0.12,-RA,,0.00,WeatherDisplay:10.37,2013-09-09 06:28:00,
2013-09-09 00:33:00,63.3,62.1,29.70,ESE,112,2.2,2.7,96,0.07,-RA,,0.00,WeatherDisplay:10.37,2013-09-09 06:33:00,
2013-09-09 00:38:00,63.3,62.1,29.70,SE,135,3.5,3.7,96,0.04,-RA,,0.00,WeatherDisplay:10.37,2013-09-09 06:38:00,
2013-09-09 00:43:00,63.3,62.1,29.69,ESE,112,3.9,4.6,96,0.01,-RA,,0.00,WeatherDisplay:10.37,2013-09-09 06:43:00,
2013-09-09 00:48:00,63.3,62.1,29.69,ESE,112,4.9,5.8,96,0.01,-RA,,0.00,WeatherDisplay:10.37,2013-09-09 06:48:00,
2013-09-09 00:53:00,63.3,62.1,29.69,ESE,112,3.3,4.6,96,0.00,-RA,,0.00,WeatherDisplay:10.37,2013-09-09 06:53:00,
2013-09-09 00:58:00,63.3,62.1,29.69,East,90,2.9,3.5,96,0.00,-RA,,0.00,WeatherDisplay:10.37,2013-09-09 06:58:00,
2013-09-09 01:03:00,63.5,62.3,29.72,NNE,22,1.5,1.5,96,0.00,-RA,,0.00,WeatherDisplay:10.37,2013-09-09 07:03:00,
2013-09-09 01:08:00,63.5,62.3,29.72,West,270,0.0,0.0,96,0.00,-RA,,0.00,WeatherDisplay:10.37,2013-09-09 07:08:00,
2013-09-09 01:13:00,63.5,62.3,29.72,ESE,112,0.1,1.1,96,0.00,OVC,,0.00,WeatherDisplay:10.37,2013-09-09 07:13:00,
2013-09-09 01:18:00,63.5,62.3,29.71,ESE,112,0.1,1.7,96,0.00,OVC,,0.00,WeatherDisplay:10.37,2013-09-09 07:18:00,
2013-09-09 01:23:00,63.5,62.3,29.71,East,90,0.2,1.7,96,0.00,OVC,,0.00,WeatherDisplay:10.37,2013-09-09 07:23:00,
2013-09-09 01:28:00,63.5,62.3,29.71,ESE,112,1.3,2.3,96,0.00,OVC,,0.00,WeatherDisplay:10.37,2013-09-09 07:28:00,
2013-09-09 01:33:00,63.7,62.8,29.71,ENE,68,0.9,2.3,97,0.00,OVC,,0.00,WeatherDisplay:10.37,2013-09-09 07:33:00,
2013-09-09 01:38:00,63.9,63.0,29.71,ESE,112,0.0,0.0,97,0.00,OVC,,0.00,WeatherDisplay:10.37,2013-09-09 07:38:00,
2013-09-09 01:43:00,63.9,63.0,29.71,East,90,2.0,2.7,97,0.00,OVC,,0.00,WeatherDisplay:10.37,2013-09-09 07:43:00,
2013-09-09 01:48:00,63.9,63.0,29.71,ESE,112,1.6,2.3,97,0.00,OVC,,0.00,WeatherDisplay:10.37,2013-09-09 07:48:00,
2013-09-09 01:53:00,63.9,63.0,29.70,ESE,112,0.0,0.0,97,0.00,OVC,,0.00,WeatherDisplay:10.37,2013-09-09 07:53:00,
2013-09-09 01:58:00,64.0,63.1,29.70,WNW,292,0.0,0.0,97,0.00,OVC,,0.00,WeatherDisplay:10.37,2013-09-09 07:58:00,
2013-09-09 02:03:00,64.2,63.3,29.71,NE,45,2.6,2.6,97,0.00,OVC,,0.00,WeatherDisplay:10.37,2013-09-09 08:03:00,
2013-09-09 02:09:00,64.2,63.3,29.71,NNE,22,1.1,2.3,97,0.00,OVC,,0.00,WeatherDisplay:10.37,2013-09-09 08:09:00,
2013-09-09 02:14:00,64.2,63.3,29.71,NNE,22,1.2,2.7,97,0.00,OVC,,0.00,WeatherDisplay:10.37,2013-09-09 08:14:00,
2013-09-09 02:19:00,64.2,63.3,29.71,NNE,22,2.4,3.5,97,0.00,OVC,,0.00,WeatherDisplay:10.37,2013-09-09 08:19:00,
2013-09-09 02:24:00,64.2,63.3,29.71,NE,45,1.1,3.5,97,0.00,OVC,,0.00,WeatherDisplay:10.37,2013-09-09 08:24:00,
2013-09-09 02:29:00,63.5,62.6,29.72,ESE,112,3.3,5.3,97,0.00,OVC,,0.00,WeatherDisplay:10.37,2013-09-09 08:29:00,
2013-09-09 02:34:00,63.5,62.6,29.72,SE,135,2.6,3.5,97,0.00,OVC,,0.00,WeatherDisplay:10.37,2013-09-09 08:34:00,
2013-09-09 02:39:00,63.5,62.3,29.71,East,90,1.4,1.4,96,0.00,OVC,,0.00,WeatherDisplay:10.37,2013-09-09 08:39:00,
2013-09-09 02:44:00,63.5,62.3,29.71,NE,45,0.4,1.1,96,0.00,OVC,,0.00,WeatherDisplay:10.37,2013-09-09 08:44:00,
2013-09-09 02:49:00,63.5,62.3,29.71,SSW,202,1.0,1.7,96,0.00,OVC,,0.00,WeatherDisplay:10.37,2013-09-09 08:49:00,
2013-09-09 02:54:00,63.5,62.3,29.71,NW,315,0.2,1.7,96,0.00,OVC,,0.00,WeatherDisplay:10.37,2013-09-09 08:54:00,
2013-09-09 02:59:00,63.5,62.3,29.71,WSW,248,0.0,0.0,96,0.00,OVC,,0.00,WeatherDisplay:10.37,2013-09-09 08:59:00,
2013-09-09 03:04:00,63.7,62.5,29.71,WSW,248,0.3,1.1,96,0.00,OVC,,0.00,WeatherDisplay:10.37,2013-09-09 09:04:00,
2013-09-09 03:09:00,63.7,62.5,29.71,NNW,338,1.2,1.7,96,0.00,OVC,,0.00,WeatherDisplay:10.37,2013-09-09 09:09:00,
2013-09-09 03:14:00,63.7,62.5,29.71,WNW,292,2.1,3.5,96,0.01,RA,,0.01,WeatherDisplay:10.37,2013-09-09 09:14:00,
2013-09-09 03:19:00,63.7,62.5,29.72,WSW,248,0.0,0.0,96,0.02,RA,,0.02,WeatherDisplay:10.37,2013-09-09 09:19:00,
2013-09-09 03:24:00,63.7,62.5,29.72,NNW,338,0.0,0.0,96,0.03,RA,,0.03,WeatherDisplay:10.37,2013-09-09 09:24:00,
2013-09-09 03:29:00,63.7,62.5,29.72,WNW,292,3.2,4.6,96,0.05,RA,,0.05,WeatherDisplay:10.37,2013-09-09 09:29:00,
2013-09-09 03:34:00,63.5,62.3,29.72,SW,225,4.4,5.8,96,0.16,RA,,0.16,WeatherDisplay:10.37,2013-09-09 09:34:00,
2013-09-09 03:39:00,62.8,61.6,29.72,SW,225,1.9,2.3,96,0.24,RA,,0.24,WeatherDisplay:10.37,2013-09-09 09:39:00,
2013-09-09 03:44:00,62.8,61.6,29.72,West,270,0.9,2.3,96,0.32,RA,,0.32,WeatherDisplay:10.37,2013-09-09 09:44:00,
2013-09-09 03:49:00,62.8,61.6,29.72,NW,315,2.0,2.7,96,0.37,RA,,0.37,WeatherDisplay:10.37,2013-09-09 09:49:00,
2013-09-09 03:54:00,63.0,61.8,29.72,NNW,338,6.0,9.2,96,0.40,RA,,0.40,WeatherDisplay:10.37,2013-09-09 09:54:00,
2013-09-09 03:59:00,62.8,61.6,29.72,WNW,292,6.2,10.4,96,0.43,RA,,0.43,WeatherDisplay:10.37,2013-09-09 09:59:00,
2013-09-09 04:04:00,62.6,61.4,29.72,NNW,338,4.1,6.3,96,0.45,RA,,0.46,WeatherDisplay:10.37,2013-09-09 10:04:00,
2013-09-09 04:09:00,62.4,61.2,29.72,NNE,22,3.7,5.8,96,0.48,RA,,0.48,WeatherDisplay:10.37,2013-09-09 10:09:00,
2013-09-09 04:14:00,62.4,61.2,29.72,NE,45,3.9,5.8,96,0.48,-RA,,0.49,WeatherDisplay:10.37,2013-09-09 10:14:00,
2013-09-09 04:19:00,62.1,60.9,29.73,ESE,112,4.0,5.3,96,0.47,-RA,,0.49,WeatherDisplay:10.37,2013-09-09 10:19:00,
2013-09-09 04:24:00,62.1,60.9,29.73,NNW,338,3.9,4.6,96,0.47,-RA,,0.50,WeatherDisplay:10.37,2013-09-09 10:24:00,
2013-09-09 04:29:00,61.9,60.7,29.73,SSW,202,5.7,8.1,96,0.45,-RA,,0.50,WeatherDisplay:10.37,2013-09-09 10:29:00,
2013-09-09 04:34:00,61.9,60.7,29.73,North,360,3.6,5.3,96,0.34,-RA,,0.50,WeatherDisplay:10.37,2013-09-09 10:34:00,
2013-09-09 04:39:00,61.7,60.5,29.73,West,270,4.0,6.9,96,0.26,-RA,,0.50,WeatherDisplay:10.37,2013-09-09 10:39:00,
2013-09-09 04:44:00,61.3,59.9,29.73,NNW,338,3.9,6.9,95,0.18,-RA,,0.50,WeatherDisplay:10.37,2013-09-09 10:44:00,
2013-09-09 04:49:00,61.2,59.8,29.73,WNW,292,3.1,4.6,95,0.13,-RA,,0.50,WeatherDisplay:10.37,2013-09-09 10:49:00,
2013-09-09 04:54:00,61.0,59.3,29.74,North,360,2.9,3.7,94,0.10,-RA,,0.50,WeatherDisplay:10.37,2013-09-09 10:54:00,
2013-09-09 04:59:00,61.0,59.3,29.74,NNE,22,2.4,4.7,94,0.07,-RA,,0.50,WeatherDisplay:10.37,2013-09-09 10:59:00,
2013-09-09 05:04:00,61.0,59.3,29.74,NNE,22,2.3,2.7,94,0.05,-RA,,0.50,WeatherDisplay:10.37,2013-09-09 11:04:00,
2013-09-09 05:09:00,61.0,59.3,29.74,North,360,2.6,4.6,94,0.02,-RA,,0.50,WeatherDisplay:10.37,2013-09-09 11:09:00,
2013-09-09 05:14:00,60.8,59.1,29.74,NNW,338,2.7,3.5,94,0.01,-RA,,0.50,WeatherDisplay:10.37,2013-09-09 11:14:00,
2013-09-09 05:19:00,60.8,59.1,29.73,NE,45,2.4,4.6,94,0.01,-RA,,0.50,WeatherDisplay:10.37,2013-09-09 11:19:00,
2013-09-09 05:24:00,60.8,58.8,29.73,NNW,338,2.9,4.2,93,0.00,-RA,,0.50,WeatherDisplay:10.37,2013-09-09 11:24:00,
2013-09-09 05:29:00,60.8,58.8,29.72,WNW,292,2.4,4.6,93,0.00,-RA,,0.50,WeatherDisplay:10.37,2013-09-09 11:29:00,
2013-09-09 05:34:00,60.8,58.8,29.72,NNW,338,1.1,1.1,93,0.00,-RA,,0.50,WeatherDisplay:10.37,2013-09-09 11:34:00,
2013-09-09 05:39:00,60.8,58.8,29.72,NNE,22,0.9,2.3,93,0.00,-RA,,0.50,WeatherDisplay:10.37,2013-09-09 11:39:00,
2013-09-09 05:44:00,61.0,59.0,29.72,WSW,248,1.0,2.2,93,0.00,-RA,,0.50,WeatherDisplay:10.37,2013-09-09 11:44:00,
2013-09-09 05:49:00,61.0,59.0,29.72,SW,225,0.7,1.1,93,0.00,-RA,,0.50,WeatherDisplay:10.37,2013-09-09 11:49:00,
2013-09-09 05:54:00,61.0,59.0,29.72,NNW,338,1.5,1.5,93,0.01,-RA,,0.51,WeatherDisplay:10.37,2013-09-09 11:54:00,
2013-09-09 05:59:00,61.0,59.0,29.72,NW,315,0.9,1.1,93,0.01,-RA,,0.51,WeatherDisplay:10.37,2013-09-09 11:59:00,
2013-09-09 06:04:00,61.0,59.0,29.72,NW,315,0.0,0.0,93,0.01,-RA,,0.51,WeatherDisplay:10.37,2013-09-09 12:04:00,
2013-09-09 06:09:00,61.0,59.0,29.72,WSW,248,1.7,2.3,93,0.01,-RA,,0.51,WeatherDisplay:10.37,2013-09-09 12:09:00,
2013-09-09 06:14:00,61.2,59.2,29.74,WSW,248,1.9,2.3,93,0.01,OVC,,0.51,WeatherDisplay:10.37,2013-09-09 12:14:00,
2013-09-09 06:19:00,61.2,59.2,29.74,West,270,1.6,2.3,93,0.01,OVC,,0.51,WeatherDisplay:10.37,2013-09-09 12:19:00,
2013-09-09 06:24:00,61.3,59.3,29.74,West,270,0.8,1.1,93,0.01,OVC,,0.51,WeatherDisplay:10.37,2013-09-09 12:24:00,
2013-09-09 06:29:00,61.3,59.3,29.75,SW,225,0.8,1.1,93,0.01,OVC,,0.51,WeatherDisplay:10.37,2013-09-09 12:29:00,
2013-09-09 06:34:00,61.2,59.2,29.75,WSW,248,2.0,2.3,93,0.01,OVC,,0.51,WeatherDisplay:10.37,2013-09-09 12:34:00,
2013-09-09 06:39:00,61.2,59.2,29.75,WSW,248,2.9,3.5,93,0.01,OVC,,0.51,WeatherDisplay:10.37,2013-09-09 12:39:00,
2013-09-09 06:44:00,61.2,59.2,29.75,NE,45,0.9,4.6,93,0.01,OVC,,0.51,WeatherDisplay:10.37,2013-09-09 12:44:00,
2013-09-09 06:49:00,61.2,59.2,29.75,West,270,2.5,4.6,93,0.01,OVC,,0.51,WeatherDisplay:10.37,2013-09-09 12:49:00,
2013-09-09 06:54:00,61.2,59.5,29.76,WNW,292,3.2,5.8,94,0.00,OVC,,0.51,WeatherDisplay:10.37,2013-09-09 12:54:00,
2013-09-09 06:59:00,61.5,59.8,29.76,West,270,1.9,3.5,94,0.00,OVC,,0.51,WeatherDisplay:10.37,2013-09-09 12:59:00,
2013-09-09 07:04:00,61.5,59.8,29.76,West,270,3.0,3.0,94,0.00,OVC,,0.51,WeatherDisplay:10.37,2013-09-09 13:04:00,
2013-09-09 07:09:00,61.7,60.0,29.76,NW,315,2.8,3.5,94,0.00,OVC,,0.51,WeatherDisplay:10.37,2013-09-09 13:09:00,
2013-09-09 07:15:00,61.9,60.2,29.76,NW,315,4.6,5.8,94,0.00,OVC,,0.51,WeatherDisplay:10.37,2013-09-09 13:15:00,
2013-09-09 07:20:00,62.2,60.2,29.76,West,270,1.7,2.3,93,0.00,OVC,,0.51,WeatherDisplay:10.37,2013-09-09 13:20:00,
2013-09-09 07:25:00,62.1,60.1,29.76,North,360,3.5,4.2,93,0.00,OVC,,0.51,WeatherDisplay:10.37,2013-09-09 13:25:00,
2013-09-09 07:30:00,62.1,60.1,29.76,ESE,112,2.7,3.7,93,0.00,OVC,,0.51,WeatherDisplay:10.37,2013-09-09 13:30:00,
2013-09-09 07:35:00,61.9,59.5,29.76,WNW,292,2.5,3.7,92,0.00,OVC,,0.51,WeatherDisplay:10.37,2013-09-09 13:35:00,
2013-09-09 07:40:00,61.9,59.5,29.76,NNE,22,3.5,5.8,92,0.00,OVC,,0.51,WeatherDisplay:10.37,2013-09-09 13:40:00,
2013-09-09 07:45:00,62.1,59.7,29.76,West,270,2.9,3.5,92,0.00,OVC,,0.51,WeatherDisplay:10.37,2013-09-09 13:45:00,
2013-09-09 07:50:00,62.2,59.8,29.76,WNW,292,3.2,5.3,92,0.00,OVC,,0.51,WeatherDisplay:10.37,2013-09-09 13:50:00,
2013-09-09 07:55:00,62.6,59.6,29.76,North,360,3.5,4.6,90,0.00,OVC,,0.51,WeatherDisplay:10.37,2013-09-09 13:55:00,
2013-09-09 08:00:00,62.8,60.1,29.76,WSW,248,2.2,2.7,91,0.00,OVC,,0.51,WeatherDisplay:10.37,2013-09-09 14:00:00,
2013-09-09 08:05:00,63.0,60.3,29.76,SW,225,2.8,3.7,91,0.00,OVC,,0.51,WeatherDisplay:10.37,2013-09-09 14:05:00,
2013-09-09 08:10:00,63.1,60.4,29.76,SSW,202,2.0,3.7,91,0.00,OVC,,0.51,WeatherDisplay:10.37,2013-09-09 14:10:00,
2013-09-09 08:15:00,63.5,60.5,29.75,WSW,248,1.6,4.6,90,0.00,OVC,,0.51,WeatherDisplay:10.37,2013-09-09 14:15:00,
2013-09-09 08:20:00,64.4,61.1,29.75,WSW,248,1.0,2.3,89,0.00,OVC,,0.51,WeatherDisplay:10.37,2013-09-09 14:20:00,
2013-09-09 08:25:00,64.2,60.6,29.75,WNW,292,1.1,2.3,88,0.00,OVC,,0.51,WeatherDisplay:10.37,2013-09-09 14:25:00,
2013-09-09 08:30:00,64.2,60.6,29.76,West,270,2.7,3.5,88,0.00,OVC,,0.51,WeatherDisplay:10.37,2013-09-09 14:30:00,
2013-09-09 08:35:00,64.4,60.8,29.76,SW,225,3.8,4.6,88,0.00,OVC,,0.51,WeatherDisplay:10.37,2013-09-09 14:35:00,
2013-09-09 08:40:00,65.3,61.3,29.75,SW,225,1.8,2.3,87,0.00,OVC,,0.51,WeatherDisplay:10.37,2013-09-09 14:40:00,
2013-09-09 08:45:00,65.1,61.1,29.75,WSW,248,3.9,5.8,87,0.00,SCT,,0.51,WeatherDisplay:10.37,2013-09-09 14:45:00,
2013-09-09 08:50:00,64.9,60.9,29.75,NNW,338,3.6,5.3,87,0.00,SCT,,0.51,WeatherDisplay:10.37,2013-09-09 14:50:00,
2013-09-09 08:55:00,65.1,60.8,29.76,WSW,248,5.9,6.9,86,0.00,SCT,,0.51,WeatherDisplay:10.37,2013-09-09 14:55:00,
2013-09-09 09:00:00,65.7,61.4,29.76,West,270,2.5,3.5,86,0.00,SCT,,0.51,WeatherDisplay:10.37,2013-09-09 15:00:00,
2013-09-09 09:05:00,65.3,60.7,29.76,WSW,248,5.3,6.3,85,0.00,CLR,,0.51,WeatherDisplay:10.37,2013-09-09 15:05:00,
2013-09-09 09:10:00,65.7,61.1,29.76,WSW,248,7.2,9.2,85,0.00,CLR,,0.51,WeatherDisplay:10.37,2013-09-09 15:10:00,
2013-09-09 09:15:00,65.3,60.7,29.77,North,360,6.2,7.3,85,0.00,CLR,,0.51,WeatherDisplay:10.37,2013-09-09 15:15:00,
2013-09-09 09:20:00,65.7,61.1,29.77,WNW,292,3.5,4.6,85,0.00,CLR,,0.51,WeatherDisplay:10.37,2013-09-09 15:20:00,
2013-09-09 09:25:00,65.8,60.8,29.77,West,270,3.1,5.3,84,0.00,CLR,,0.51,WeatherDisplay:10.37,2013-09-09 15:25:00,
2013-09-09 09:30:00,65.1,60.5,29.78,West,270,3.7,7.8,85,0.00,CLR,,0.51,WeatherDisplay:10.37,2013-09-09 15:30:00,
2013-09-09 09:35:00,64.9,59.9,29.78,SW,225,3.8,4.6,84,0.00,CLR,,0.51,WeatherDisplay:10.37,2013-09-09 15:35:00,
2013-09-09 09:40:00,65.3,59.7,29.77,WSW,248,4.7,5.8,82,0.00,CLR,,0.51,WeatherDisplay:10.37,2013-09-09 15:40:00,
2013-09-09 09:45:00,65.5,60.2,29.77,ENE,68,4.8,5.8,83,0.00,CLR,,0.51,WeatherDisplay:10.37,2013-09-09 15:45:00,
2013-09-09 09:50:00,65.3,60.0,29.77,WSW,248,7.6,9.2,83,0.00,CLR,,0.51,WeatherDisplay:10.37,2013-09-09 15:50:00,
2013-09-09 09:55:00,65.1,59.8,29.77,NW,315,3.2,3.5,83,0.00,CLR,,0.51,WeatherDisplay:10.37,2013-09-09 15:55:00,
2013-09-09 10:00:00,65.7,60.4,29.77,SW,225,3.5,5.8,83,0.00,CLR,,0.51,WeatherDisplay:10.37,2013-09-09 16:00:00,
2013-09-09 10:05:00,66.0,60.3,29.77,WNW,292,3.1,5.8,82,0.00,FEW,,0.51,WeatherDisplay:10.37,2013-09-09 16:05:00,
2013-09-09 10:10:00,66.6,60.6,29.77,North,360,4.6,5.8,81,0.00,FEW,,0.51,WeatherDisplay:10.37,2013-09-09 16:10:00,
2013-09-09 10:15:00,66.7,60.7,29.77,North,360,2.9,4.6,81,0.00,FEW,,0.51,WeatherDisplay:10.37,2013-09-09 16:15:00,
2013-09-09 10:20:00,66.7,60.0,29.77,WSW,248,3.2,5.8,79,0.00,FEW,,0.51,WeatherDisplay:10.37,2013-09-09 16:20:00,
2013-09-09 10:25:00,67.8,60.7,29.77,SW,225,8.4,10.4,78,0.00,FEW,,0.51,WeatherDisplay:10.37,2013-09-09 16:25:00,
2013-09-09 10:30:00,67.8,60.7,29.77,West,270,4.3,5.8,78,0.00,FEW,,0.51,WeatherDisplay:10.37,2013-09-09 16:30:00,
2013-09-09 10:35:00,68.0,60.2,29.77,West,270,3.6,4.7,76,0.00,FEW,,0.51,WeatherDisplay:10.37,2013-09-09 16:35:00,
2013-09-09 10:40:00,68.2,60.3,29.77,WSW,248,3.3,5.8,76,0.00,FEW,,0.51,WeatherDisplay:10.37,2013-09-09 16:40:00,
2013-09-09 10:45:00,68.4,60.5,29.77,WSW,248,2.9,5.8,76,0.00,FEW,,0.51,WeatherDisplay:10.37,2013-09-09 16:45:00,
2013-09-09 10:50:00,69.4,61.5,29.77,West,270,3.0,6.9,76,0.00,FEW,,0.51,WeatherDisplay:10.37,2013-09-09 16:50:00,
2013-09-09 10:55:00,69.1,60.5,29.78,West,270,4.4,5.8,74,0.00,FEW,,0.51,WeatherDisplay:10.37,2013-09-09 16:55:00,
2013-09-09 11:00:00,69.6,60.9,29.78,WSW,248,4.5,5.8,74,0.00,FEW,,0.51,WeatherDisplay:10.37,2013-09-09 17:00:00,
2013-09-09 11:05:00,70.3,61.2,29.78,SSE,158,6.0,7.3,73,0.00,CLR,,0.51,WeatherDisplay:10.37,2013-09-09 17:05:00,
2013-09-09 11:10:00,70.5,61.4,29.78,SW,225,4.3,5.8,73,0.00,CLR,,0.51,WeatherDisplay:10.37,2013-09-09 17:10:00,
2013-09-09 11:15:00,70.5,61.0,29.78,West,270,5.1,6.9,72,0.00,CLR,,0.51,WeatherDisplay:10.37,2013-09-09 17:15:00,
2013-09-09 11:20:00,70.7,61.6,29.78,SW,225,3.7,4.6,73,0.00,CLR,,0.51,WeatherDisplay:10.37,2013-09-09 17:20:00,
2013-09-09 11:25:00,70.9,61.4,29.78,SW,225,4.2,9.2,72,0.00,CLR,,0.51,WeatherDisplay:10.37,2013-09-09 17:25:00,
2013-09-09 11:30:00,70.9,60.6,29.77,SW,225,9.3,10.4,70,0.00,CLR,,0.51,WeatherDisplay:10.37,2013-09-09 17:30:00,
2013-09-09 11:35:00,71.4,61.1,29.77,WSW,248,5.5,8.1,70,0.00,CLR,,0.51,WeatherDisplay:10.37,2013-09-09 17:35:00,
2013-09-09 11:40:00,72.0,61.3,29.78,SW,225,5.8,10.4,69,0.00,CLR,,0.51,WeatherDisplay:10.37,2013-09-09 17:40:00,
2013-09-09 11:45:00,72.0,62.1,29.78,WNW,292,4.5,4.5,71,0.00,CLR,,0.51,WeatherDisplay:10.37,2013-09-09 17:45:00,
2013-09-09 11:50:00,71.8,60.2,29.78,WSW,248,5.0,5.8,67,0.00,CLR,,0.51,WeatherDisplay:10.37,2013-09-09 17:50:00,
2013-09-09 11:55:00,72.5,60.9,29.78,SW,225,4.0,7.3,67,0.00,CLR,,0.51,WeatherDisplay:10.37,2013-09-09 17:55:00,
2013-09-09 12:00:00,72.7,61.1,29.78,SW,225,4.7,5.3,67,0.00,CLR,,0.51,WeatherDisplay:10.37,2013-09-09 18:00:00,
2013-09-09 12:05:00,72.7,60.7,29.78,West,270,3.0,6.9,66,0.00,CLR,,0.51,WeatherDisplay:10.37,2013-09-09 18:05:00,
2013-09-09 12:10:00,72.7,61.1,29.78,WSW,248,4.7,4.7,67,0.00,CLR,,0.51,WeatherDisplay:10.37,2013-09-09 18:10:00,
2013-09-09 12:15:00,72.7,60.3,29.78,North,360,6.3,8.1,65,0.00,CLR,,0.51,WeatherDisplay:10.37,2013-09-09 18:15:00,
2013-09-09 12:20:00,72.5,58.3,29.78,NW,315,5.8,7.3,61,0.00,CLR,,0.51,WeatherDisplay:10.37,2013-09-09 18:20:00,
2013-09-09 12:25:00,72.1,59.7,29.78,WSW,248,3.9,4.6,65,0.00,CLR,,0.51,WeatherDisplay:10.37,2013-09-09 18:25:00,
2013-09-09 12:30:00,72.7,59.8,29.78,SW,225,6.6,6.6,64,0.00,CLR,,0.51,WeatherDisplay:10.37,2013-09-09 18:30:00,
2013-09-09 12:35:00,72.5,59.2,29.78,SW,225,2.9,4.6,63,0.00,CLR,,0.51,WeatherDisplay:10.37,2013-09-09 18:35:00,
2013-09-09 12:40:00,72.5,59.2,29.78,North,360,3.7,3.7,63,0.00,CLR,,0.51,WeatherDisplay:10.37,2013-09-09 18:40:00,
2013-09-09 12:45:00,73.4,59.1,29.78,WSW,248,4.5,10.4,61,0.00,CLR,,0.51,WeatherDisplay:10.37,2013-09-09 18:45:00,
2013-09-09 12:50:00,73.4,59.1,29.78,SW,225,5.2,6.9,61,0.00,CLR,,0.51,WeatherDisplay:10.37,2013-09-09 18:50:00,
2013-09-09 12:55:00,73.6,58.4,29.78,WNW,292,4.2,8.1,59,0.00,CLR,,0.51,WeatherDisplay:10.37,2013-09-09 18:55:00,
2013-09-09 13:01:00,73.8,57.1,29.78,West,270,6.5,8.3,56,0.00,CLR,,0.51,WeatherDisplay:10.37,2013-09-09 19:01:00,
2013-09-09 13:06:00,73.4,57.7,29.78,NW,315,8.1,11.9,58,0.00,BKN,,0.51,WeatherDisplay:10.37,2013-09-09 19:06:00,
2013-09-09 13:11:00,74.5,58.3,29.78,West,270,5.3,8.3,57,0.00,BKN,,0.51,WeatherDisplay:10.37,2013-09-09 19:11:00,
2013-09-09 13:16:00,73.9,59.1,29.78,West,270,3.5,9.2,60,0.00,BKN,,0.51,WeatherDisplay:10.37,2013-09-09 19:16:00,
2013-09-09 13:21:00,73.6,58.4,29.78,West,270,5.1,6.9,59,0.00,BKN,,0.51,WeatherDisplay:10.37,2013-09-09 19:21:00,
2013-09-09 13:26:00,73.8,58.1,29.78,West,270,3.0,4.6,58,0.00,BKN,,0.51,WeatherDisplay:10.37,2013-09-09 19:26:00,
2013-09-09 13:31:00,73.9,57.7,29.78,West,270,5.8,10.4,57,0.00,BKN,,0.51,WeatherDisplay:10.37,2013-09-09 19:31:00,
2013-09-09 13:36:00,74.3,59.0,29.78,West,270,4.2,6.9,59,0.00,BKN,,0.51,WeatherDisplay:10.37,2013-09-09 19:36:00,
2013-09-09 13:41:00,74.5,57.8,29.78,SW,225,3.7,5.8,56,0.00,BKN,,0.51,WeatherDisplay:10.37,2013-09-09 19:41:00,
2013-09-09 13:46:00,74.5,57.8,29.78,NW,315,4.0,4.6,56,0.00,BKN,,0.51,WeatherDisplay:10.37,2013-09-09 19:46:00,
2013-09-09 13:51:00,73.6,56.9,29.79,North,360,5.4,5.8,56,0.00,BKN,,0.51,WeatherDisplay:10.37,2013-09-09 19:51:00,
2013-09-09 13:56:00,73.2,57.5,29.79,SSW,202,5.2,7.3,58,0.00,BKN,,0.51,WeatherDisplay:10.37,2013-09-09 19:56:00,
2013-09-09 14:01:00,74.7,57.5,29.79,SW,225,7.8,9.2,55,0.00,SCT,,0.51,WeatherDisplay:10.37,2013-09-09 20:01:00,
2013-09-09 14:06:00,74.8,57.0,29.78,SSW,202,5.1,10.4,54,0.00,SCT,,0.51,WeatherDisplay:10.37,2013-09-09 20:06:00,
2013-09-09 14:11:00,75.2,57.9,29.78,WSW,248,6.9,8.1,55,0.00,SCT,,0.51,WeatherDisplay:10.37,2013-09-09 20:11:00,
2013-09-09 14:16:00,74.5,56.2,29.78,WSW,248,6.7,9.4,53,0.00,SCT,,0.51,WeatherDisplay:10.37,2013-09-09 20:16:00,
2013-09-09 14:21:00,74.5,56.8,29.78,SW,225,5.7,6.9,54,0.00,SCT,,0.51,WeatherDisplay:10.37,2013-09-09 20:21:00,
2013-09-09 14:26:00,74.8,55.5,29.78,NNW,338,5.6,8.1,51,0.00,SCT,,0.51,WeatherDisplay:10.37,2013-09-09 20:26:00,
2013-09-09 14:31:00,75.6,56.7,29.77,SW,225,3.0,3.5,52,0.00,SCT,,0.51,WeatherDisplay:10.37,2013-09-09 20:31:00,
2013-09-09 14:36:00,75.0,56.7,29.77,SW,225,5.2,6.9,53,0.00,SCT,,0.51,WeatherDisplay:10.37,2013-09-09 20:36:00,
2013-09-09 14:41:00,75.2,56.9,29.77,WNW,292,3.8,5.8,53,0.00,SCT,,0.51,WeatherDisplay:10.37,2013-09-09 20:41:00,
2013-09-09 14:46:00,75.6,57.3,29.77,SSW,202,3.0,5.8,53,0.00,SCT,,0.51,WeatherDisplay:10.37,2013-09-09 20:46:00,
2013-09-09 14:51:00,75.7,56.3,29.77,WSW,248,5.1,6.9,51,0.00,SCT,,0.51,WeatherDisplay:10.37,2013-09-09 20:51:00,
2013-09-09 14:56:00,76.5,55.9,29.77,West,270,6.9,8.1,49,0.00,SCT,,0.51,WeatherDisplay:10.37,2013-09-09 20:56:00,
2013-09-09 15:01:00,75.9,53.6,29.77,SW,225,8.3,9.2,46,0.00,SCT,,0.51,WeatherDisplay:10.37,2013-09-09 21:01:00,
2013-09-09 15:06:00,75.9,54.2,29.77,WNW,292,2.2,2.3,47,0.00,SCT,,0.51,WeatherDisplay:10.37,2013-09-09 21:06:00,
2013-09-09 15:11:00,75.0,54.0,29.77,SW,225,3.1,5.8,48,0.00,SCT,,0.51,WeatherDisplay:10.37,2013-09-09 21:11:00,
2013-09-09 15:16:00,75.7,54.6,29.77,NNE,22,4.1,8.3,48,0.00,SCT,,0.51,WeatherDisplay:10.37,2013-09-09 21:16:00,
2013-09-09 15:21:00,76.3,54.0,29.77,West,270,6.4,8.1,46,0.00,SCT,,0.51,WeatherDisplay:10.37,2013-09-09 21:21:00,
2013-09-09 15:26:00,76.5,54.8,29.77,SW,225,4.3,6.9,47,0.00,SCT,,0.51,WeatherDisplay:10.37,2013-09-09 21:26:00,
2013-09-09 15:31:00,76.3,53.4,29.77,WSW,248,8.0,13.8,45,0.00,SCT,,0.51,WeatherDisplay:10.37,2013-09-09 21:31:00,
2013-09-09 15:36:00,75.9,52.4,29.77,South,180,10.3,10.9,44,0.00,SCT,,0.51,WeatherDisplay:10.37,2013-09-09 21:36:00,
2013-09-09 15:41:00,76.1,53.2,29.77,WSW,248,9.0,11.5,45,0.00,SCT,,0.51,WeatherDisplay:10.37,2013-09-09 21:41:00,
2013-09-09 15:46:00,75.9,52.4,29.77,SW,225,5.8,10.4,44,0.00,SCT,,0.51,WeatherDisplay:10.37,2013-09-09 21:46:00,
2013-09-09 15:51:00,75.9,53.0,29.77,WSW,248,7.1,10.4,45,0.00,SCT,,0.51,WeatherDisplay:10.37,2013-09-09 21:51:00,
2013-09-09 15:56:00,75.2,52.4,29.77,WSW,248,3.7,8.1,45,0.00,SCT,,0.51,WeatherDisplay:10.37,2013-09-09 21:56:00,
2013-09-09 16:01:00,75.6,52.8,29.77,West,270,6.3,6.9,45,0.00,SCT,,0.51,WeatherDisplay:10.37,2013-09-09 22:01:00,
2013-09-09 16:06:00,75.6,53.4,29.77,SW,225,8.0,10.4,46,0.00,SCT,,0.51,WeatherDisplay:10.37,2013-09-09 22:06:00,
2013-09-09 16:11:00,76.1,53.8,29.77,WSW,248,7.5,13.0,46,0.00,SCT,,0.51,WeatherDisplay:10.37,2013-09-09 22:11:00,
2013-09-09 16:16:00,76.5,53.0,29.76,WSW,248,8.8,9.2,44,0.00,SCT,,0.51,WeatherDisplay:10.37,2013-09-09 22:16:00,
2013-09-09 16:21:00,76.6,53.7,29.76,WSW,248,8.5,10.4,45,0.00,SCT,,0.51,WeatherDisplay:10.37,2013-09-09 22:21:00,
2013-09-09 16:26:00,76.5,53.6,29.76,NNW,338,4.6,8.1,45,0.00,SCT,,0.51,WeatherDisplay:10.37,2013-09-09 22:26:00,
2013-09-09 16:31:00,77.2,53.0,29.77,SW,225,5.6,7.8,43,0.00,SCT,,0.51,WeatherDisplay:10.37,2013-09-09 22:31:00,
2013-09-09 16:36:00,75.9,52.4,29.77,WNW,292,3.1,6.9,44,0.00,SCT,,0.51,WeatherDisplay:10.37,2013-09-09 22:36:00,
2013-09-09 16:41:00,75.9,52.4,29.77,WSW,248,6.6,9.2,44,0.00,SCT,,0.51,WeatherDisplay:10.37,2013-09-09 22:41:00,
2013-09-09 16:46:00,74.8,52.0,29.77,WSW,248,2.2,4.6,45,0.00,SCT,,0.51,WeatherDisplay:10.37,2013-09-09 22:46:00,
2013-09-09 16:51:00,74.1,52.6,29.77,WSW,248,2.7,3.7,47,0.00,SCT,,0.51,WeatherDisplay:10.37,2013-09-09 22:51:00,
2013-09-09 16:56:00,75.2,53.0,29.77,NNW,338,3.9,4.6,46,0.00,SCT,,0.51,WeatherDisplay:10.37,2013-09-09 22:56:00,
2013-09-09 17:01:00,74.5,52.4,29.77,West,270,4.0,5.3,46,0.00,SCT,,0.51,WeatherDisplay:10.37,2013-09-09 23:01:00,
2013-09-09 17:06:00,74.8,53.2,29.77,SW,225,7.1,7.8,47,0.00,SCT,,0.51,WeatherDisplay:10.37,2013-09-09 23:06:00,
2013-09-09 17:11:00,75.0,52.8,29.77,WSW,248,3.2,4.6,46,0.00,BKN,,0.51,WeatherDisplay:10.37,2013-09-09 23:11:00,
2013-09-09 17:16:00,74.7,52.5,29.78,West,270,6.3,8.1,46,0.00,BKN,,0.51,WeatherDisplay:10.37,2013-09-09 23:16:00,
2013-09-09 17:21:00,74.5,52.9,29.78,West,270,6.2,7.8,47,0.00,BKN,,0.51,WeatherDisplay:10.37,2013-09-09 23:21:00,
2013-09-09 17:26:00,74.7,53.7,29.78,WSW,248,3.1,5.8,48,0.00,BKN,,0.51,WeatherDisplay:10.37,2013-09-09 23:26:00,
2013-09-09 17:31:00,73.6,52.7,29.78,SW,225,4.1,4.6,48,0.00,BKN,,0.51,WeatherDisplay:10.37,2013-09-09 23:31:00,
2013-09-09 17:36:00,73.4,53.1,29.78,SSW,202,4.0,5.8,49,0.00,BKN,,0.51,WeatherDisplay:10.37,2013-09-09 23:36:00,
2013-09-09 17:41:00,73.2,52.9,29.78,NNW,338,2.8,5.8,49,0.00,BKN,,0.51,WeatherDisplay:10.37,2013-09-09 23:41:00,
2013-09-09 17:46:00,73.2,53.4,29.78,SW,225,3.3,4.6,50,0.00,BKN,,0.51,WeatherDisplay:10.37,2013-09-09 23:46:00,
2013-09-09 17:51:00,73.4,53.1,29.78,WNW,292,3.4,3.7,49,0.00,BKN,,0.51,WeatherDisplay:10.37,2013-09-09 23:51:00,
2013-09-09 17:56:00,72.9,53.7,29.78,West,270,3.2,4.2,51,0.00,BKN,,0.51,WeatherDisplay:10.37,2013-09-09 23:56:00,
2013-09-09 18:01:00,72.9,54.2,29.78,WSW,248,1.8,2.3,52,0.00,BKN,,0.51,WeatherDisplay:10.37,2013-09-10 00:01:00,
2013-09-09 18:06:00,72.7,53.5,29.79,SSW,202,1.5,2.3,51,0.00,BKN,,0.51,WeatherDisplay:10.37,2013-09-10 00:06:00,
2013-09-09 18:11:00,72.9,53.7,29.79,WSW,248,2.9,4.6,51,0.00,BKN,,0.51,WeatherDisplay:10.37,2013-09-10 00:11:00,
2013-09-09 18:16:00,72.7,54.1,29.79,NNE,22,2.1,2.3,52,0.00,BKN,,0.51,WeatherDisplay:10.37,2013-09-10 00:16:00,
2013-09-09 18:21:00,72.3,53.7,29.79,SSW,202,1.0,3.5,52,0.00,BKN,,0.51,WeatherDisplay:10.37,2013-09-10 00:21:00,
2013-09-09 18:26:00,72.1,54.0,29.79,East,90,1.8,2.3,53,0.00,BKN,,0.51,WeatherDisplay:10.37,2013-09-10 00:26:00,
2013-09-09 18:32:00,72.1,54.5,29.79,WSW,248,2.2,3.7,54,0.00,BKN,,0.51,WeatherDisplay:10.37,2013-09-10 00:32:00,
2013-09-09 18:37:00,72.3,53.7,29.79,SE,135,2.8,3.7,52,0.00,BKN,,0.51,WeatherDisplay:10.37,2013-09-10 00:37:00,
2013-09-09 18:42:00,71.8,53.7,29.79,SW,225,3.9,4.6,53,0.00,BKN,,0.51,WeatherDisplay:10.37,2013-09-10 00:42:00,
2013-09-09 18:47:00,71.6,54.1,29.79,WSW,248,3.1,4.6,54,0.00,BKN,,0.51,WeatherDisplay:10.37,2013-09-10 00:47:00,
2013-09-09 18:52:00,71.4,53.9,29.79,North,360,2.7,5.8,54,0.00,BKN,,0.51,WeatherDisplay:10.37,2013-09-10 00:52:00,
2013-09-09 18:57:00,71.8,54.3,29.79,WSW,248,3.0,3.5,54,0.00,BKN,,0.51,WeatherDisplay:10.37,2013-09-10 00:57:00,
2013-09-09 19:02:00,71.1,53.6,29.79,WSW,248,4.5,5.3,54,0.00,OVC,,0.51,WeatherDisplay:10.37,2013-09-10 01:02:00,
2013-09-09 19:07:00,70.7,53.2,29.80,West,270,2.6,4.6,54,0.00,OVC,,0.51,WeatherDisplay:10.37,2013-09-10 01:07:00,
2013-09-09 19:12:00,70.5,53.6,29.80,SW,225,3.5,4.6,55,0.00,OVC,,0.51,WeatherDisplay:10.37,2013-09-10 01:12:00,
2013-09-09 19:17:00,70.5,53.1,29.80,ESE,112,3.5,3.5,54,0.00,OVC,,0.51,WeatherDisplay:10.37,2013-09-10 01:17:00,
2013-09-09 19:22:00,70.3,53.4,29.80,North,360,3.0,5.8,55,0.00,OVC,,0.51,WeatherDisplay:10.37,2013-09-10 01:22:00,
2013-09-09 19:27:00,70.0,53.6,29.80,SW,225,3.1,3.7,56,0.00,OVC,,0.51,WeatherDisplay:10.37,2013-09-10 01:27:00,
2013-09-09 19:32:00,69.6,53.7,29.81,SW,225,3.0,3.7,57,0.00,OVC,,0.51,WeatherDisplay:10.37,2013-09-10 01:32:00,
2013-09-09 19:37:00,70.0,54.1,29.81,SE,135,1.5,2.3,57,0.00,OVC,,0.51,WeatherDisplay:10.37,2013-09-10 01:37:00,
2013-09-09 19:42:00,69.6,54.2,29.81,SSW,202,4.4,4.6,58,0.00,OVC,,0.51,WeatherDisplay:10.37,2013-09-10 01:42:00,
2013-09-09 19:47:00,69.1,54.2,29.81,SW,225,4.2,4.6,59,0.00,OVC,,0.51,WeatherDisplay:10.37,2013-09-10 01:47:00,
2013-09-09 19:52:00,68.7,54.3,29.82,SW,225,3.7,4.6,60,0.00,OVC,,0.51,WeatherDisplay:10.37,2013-09-10 01:52:00,
2013-09-09 19:57:00,68.7,54.3,29.82,West,270,3.0,3.5,60,0.00,OVC,,0.51,WeatherDisplay:10.37,2013-09-10 01:57:00,
2013-09-09 20:02:00,68.9,54.0,29.82,SW,225,3.4,3.7,59,0.00,OVC,,0.51,WeatherDisplay:10.37,2013-09-10 02:02:00,
2013-09-09 20:07:00,68.5,53.1,29.83,WNW,292,4.0,4.6,58,0.00,OVC,,0.51,WeatherDisplay:10.37,2013-09-10 02:07:00,
2013-09-09 20:12:00,68.2,53.8,29.83,WNW,292,2.3,2.3,60,0.00,BKN,,0.51,WeatherDisplay:10.37,2013-09-10 02:12:00,
2013-09-09 20:17:00,67.8,54.3,29.84,SW,225,4.9,5.8,62,0.00,BKN,,0.51,WeatherDisplay:10.37,2013-09-10 02:17:00,
2013-09-09 20:22:00,67.5,54.5,29.84,West,270,2.3,3.5,63,0.00,BKN,,0.51,WeatherDisplay:10.37,2013-09-10 02:22:00,
2013-09-09 20:27:00,67.1,54.5,29.84,WNW,292,2.2,3.5,64,0.00,BKN,,0.51,WeatherDisplay:10.37,2013-09-10 02:27:00,
2013-09-09 20:32:00,66.6,54.5,29.84,SW,225,1.9,2.3,65,0.00,BKN,,0.51,WeatherDisplay:10.37,2013-09-10 02:32:00,
2013-09-09 20:37:00,66.4,54.7,29.84,SSW,202,1.6,3.5,66,0.00,BKN,,0.51,WeatherDisplay:10.37,2013-09-10 02:37:00,
2013-09-09 20:42:00,66.2,54.9,29.85,West,270,0.4,1.1,67,0.00,BKN,,0.51,WeatherDisplay:10.37,2013-09-10 02:42:00,
2013-09-09 20:47:00,65.7,54.8,29.85,WSW,248,1.0,1.1,68,0.00,BKN,,0.51,WeatherDisplay:10.37,2013-09-10 02:47:00,
2013-09-09 20:52:00,65.5,55.1,29.84,WNW,292,0.0,0.0,69,0.00,BKN,,0.51,WeatherDisplay:10.37,2013-09-10 02:52:00,
2013-09-09 20:57:00,65.1,55.1,29.84,SW,225,0.0,0.0,70,0.00,BKN,,0.51,WeatherDisplay:10.37,2013-09-10 02:57:00,
2013-09-09 21:02:00,64.6,55.0,29.84,NNW,338,0.1,1.1,71,0.00,BKN,,0.51,WeatherDisplay:10.37,2013-09-10 03:02:00,
2013-09-09 21:07:00,64.2,55.4,29.84,South,180,0.3,1.1,73,0.00,BKN,,0.51,WeatherDisplay:10.37,2013-09-10 03:07:00,
2013-09-09 21:12:00,63.9,55.4,29.84,SW,225,0.0,0.0,74,0.00,CLR,,0.51,WeatherDisplay:10.37,2013-09-10 03:12:00,
2013-09-09 21:17:00,63.3,55.2,29.84,SW,225,0.0,1.1,75,0.00,CLR,,0.51,WeatherDisplay:10.37,2013-09-10 03:17:00,
2013-09-09 21:22:00,63.0,55.3,29.84,SSW,202,0.2,1.1,76,0.00,CLR,,0.51,WeatherDisplay:10.37,2013-09-10 03:22:00,
2013-09-09 21:27:00,63.0,55.7,29.85,ESE,112,0.0,0.0,77,0.00,CLR,,0.51,WeatherDisplay:10.37,2013-09-10 03:27:00,
2013-09-09 21:32:00,63.0,55.7,29.85,WNW,292,1.8,2.3,77,0.00,CLR,,0.51,WeatherDisplay:10.37,2013-09-10 03:32:00,
2013-09-09 21:37:00,62.2,55.6,29.85,NW,315,0.0,1.1,79,0.00,CLR,,0.51,WeatherDisplay:10.37,2013-09-10 03:37:00,
2013-09-09 21:42:00,61.9,55.7,29.85,West,270,0.0,0.0,80,0.00,CLR,,0.51,WeatherDisplay:10.37,2013-09-10 03:42:00,
2013-09-09 21:47:00,61.5,55.3,29.85,South,180,0.8,1.1,80,0.00,CLR,,0.51,WeatherDisplay:10.37,2013-09-10 03:47:00,
2013-09-09 21:52:00,61.3,55.4,29.85,SW,225,0.0,0.0,81,0.00,CLR,,0.51,WeatherDisplay:10.37,2013-09-10 03:52:00,
2013-09-09 21:57:00,61.3,55.4,29.85,WSW,248,0.3,1.1,81,0.00,CLR,,0.51,WeatherDisplay:10.37,2013-09-10 03:57:00,
2013-09-09 22:01:00,61.3,55.4,29.85,West,270,0.0,0.0,81,0.00,CLR,,0.51,WeatherDisplay:10.37,2013-09-10 04:01:00,
2013-09-09 22:02:00,61.2,55.3,29.85,West,270,0.0,0.0,81,0.00,CLR,,0.51,WeatherDisplay:10.37,2013-09-10 04:02:00,
2013-09-09 22:07:00,60.8,55.3,29.86,WSW,248,0.0,0.0,82,0.00,CLR,,0.51,WeatherDisplay:10.37,2013-09-10 04:07:00,
2013-09-09 22:12:00,60.4,55.2,29.86,SW,225,0.0,0.0,83,0.00,CLR,,0.51,WeatherDisplay:10.37,2013-09-10 04:12:00,
2013-09-09 22:17:00,60.3,55.1,29.86,SW,225,0.0,0.0,83,0.00,CLR,,0.51,WeatherDisplay:10.37,2013-09-10 04:17:00,
2013-09-09 22:22:00,60.1,54.9,29.86,SW,225,1.9,2.3,83,0.00,CLR,,0.51,WeatherDisplay:10.37,2013-09-10 04:22:00,
2013-09-09 22:27:00,60.1,54.9,29.86,SW,225,3.2,3.7,83,0.00,CLR,,0.51,WeatherDisplay:10.37,2013-09-10 04:27:00,
2013-09-09 22:32:00,60.1,54.9,29.86,SW,225,2.4,2.4,83,0.00,CLR,,0.51,WeatherDisplay:10.37,2013-09-10 04:32:00,
2013-09-09 22:37:00,59.7,54.5,29.86,SW,225,1.9,2.3,83,0.00,CLR,,0.51,WeatherDisplay:10.37,2013-09-10 04:37:00,
2013-09-09 22:42:00,59.7,54.5,29.86,SW,225,2.1,2.3,83,0.00,CLR,,0.51,WeatherDisplay:10.37,2013-09-10 04:42:00,
2013-09-09 22:47:00,59.5,54.3,29.86,SW,225,0.0,0.0,83,0.00,CLR,,0.51,WeatherDisplay:10.37,2013-09-10 04:47:00,
2013-09-09 22:52:00,59.4,54.2,29.86,WSW,248,3.1,3.5,83,0.00,CLR,,0.51,WeatherDisplay:10.37,2013-09-10 04:52:00,
2013-09-09 22:57:00,59.4,54.2,29.86,SW,225,2.6,2.6,83,0.00,CLR,,0.51,WeatherDisplay:10.37,2013-09-10 04:57:00,
2013-09-09 23:02:00,59.5,54.3,29.86,WSW,248,3.2,3.5,83,0.00,CLR,,0.51,WeatherDisplay:10.37,2013-09-10 05:02:00,
2013-09-09 23:07:00,59.7,54.5,29.86,SW,225,1.4,2.3,83,0.00,CLR,,0.51,WeatherDisplay:10.37,2013-09-10 05:07:00,
2013-09-09 23:12:00,59.5,54.3,29.86,WSW,248,2.2,3.5,83,0.00,CLR,,0.51,WeatherDisplay:10.37,2013-09-10 05:12:00,
2013-09-09 23:17:00,59.2,54.4,29.86,SSW,202,2.7,3.5,84,0.00,CLR,,0.51,WeatherDisplay:10.37,2013-09-10 05:17:00,
2013-09-09 23:22:00,59.0,54.2,29.86,WSW,248,3.5,3.5,84,0.00,CLR,,0.51,WeatherDisplay:10.37,2013-09-10 05:22:00,
2013-09-09 23:27:00,59.0,54.2,29.86,SW,225,2.0,2.7,84,0.00,CLR,,0.51,WeatherDisplay:10.37,2013-09-10 05:27:00,
2013-09-09 23:33:00,58.6,54.1,29.86,SW,225,1.7,2.3,85,0.00,CLR,,0.51,WeatherDisplay:10.37,2013-09-10 05:33:00,
2013-09-09 23:38:00,58.5,54.0,29.86,SW,225,0.0,0.0,85,0.00,CLR,,0.51,WeatherDisplay:10.37,2013-09-10 05:38:00,
2013-09-09 23:43:00,59.2,54.7,29.86,West,270,0.0,1.1,85,0.00,CLR,,0.51,WeatherDisplay:10.37,2013-09-10 05:43:00,
2013-09-09 23:48:00,58.8,54.3,29.86,SW,225,0.0,0.0,85,0.00,CLR,,0.51,WeatherDisplay:10.37,2013-09-10 05:48:00,
2013-09-09 23:53:00,58.5,54.0,29.86,SW,225,0.0,0.0,85,0.00,CLR,,0.51,WeatherDisplay:10.37,2013-09-10 05:53:00,
2013-09-09 23:58:00,58.1,53.9,29.86,SW,225,0.0,0.0,86,0.00,CLR,,0.51,WeatherDisplay:10.37,2013-09-10 05:58:00,